Theta_e
343 351 359 357 352 347 345 346 347 351 352 352 354 352 351 352 354 356 357 357 356 356 356 356 356 356 355 355 355 353 353 353 353 350 349 350 350 352 354 352 353 351 355
349 353 357 356 352 349 347 343 345 348 349 349 349 349 348 348 347 351 352 353 355 356 356 355 355 355 355 355 354 354 354 353 352 351 348 349 350 349 351 351 352 351 355
349 353 353 355 351 351 349 345 344 343 346 347 345 343 343 342 342 345 347 348 349 352 354 354 354 354 353 354 354 353 353 354 355 353 350 341 340 347 347 348 348 352 354
350 352 351 353 353 352 349 346 345 343 343 345 344 342 340 340 340 341 342 342 343 346 349 351 353 353 354 354 353 353 354 354 354 353 344 343 342 347 347 347 347 348 350
347 351 350 353 352 353 349 347 347 346 344 343 343 341 340 342 345 346 345 342 340 340 340 342 347 349 349 352 352 353 353 353 354 348 341 340 342 346 347 346 346 348 349
348 349 354 353 352 351 351 350 348 347 347 346 346 347 343 345 347 347 348 348 347 346 344 341 340 342 346 345 349 350 351 351 348 340 344 347 342 349 347 346 346 346 349
348 350 349 353 352 352 351 349 349 348 349 348 347 347 348 348 348 350 351 350 350 348 347 346 345 343 341 340 339 340 341 343 338 339 341 343 345 351 348 347 346 345 346
348 350 348 353 353 354 353 352 353 352 351 351 351 349 349 350 350 349 348 347 347 346 345 344 343 343 342 342 341 340 339 340 332 337 342 343 350 350 350 347 346 345 345
348 348 347 348 351 355 354 353 352 351 351 351 350 349 347 346 344 343 343 341 339 336 336 334 337 338 338 340 341 342 342 343 331 328 340 340 349 347 347 347 346 345 345
343 345 344 346 346 347 347 351 350 349 349 348 348 343 340 336 331 330 329 329 329 328 328 330 334 336 334 341 341 342 346 342 329 330 336 338 343 341 341 344 346 345 344
340 341 344 344 344 343 342 345 344 343 341 342 343 344 326 319 317 317 329 331 326 327 329 330 330 330 326 323 327 333 330 320 323 330 331 341 339 338 338 338 339 346 345
337 339 342 342 340 339 338 330 326 327 322 320 316 321 311 309 312 316 323 324 323 323 323 323 323 321 313 304 304 312 305 305 312 326 330 340 338 337 337 337 337 338 346
336 338 339 340 339 330 325 320 315 314 305 304 304 305 304 305 304 304 305 304 303 312 303 305 303 302 301 301 301 300 302 302 302 315 334 335 330 327 327 330 335 336 337
335 339 341 340 326 323 321 316 312 304 303 302 303 303 302 302 301 301 301 301 301 300 300 300 300 300 300 301 299 299 299 300 301 302 317 331 326 323 321 322 325 333 335
331 333 336 327 321 316 306 304 303 303 302 302 302 303 303 301 301 300 300 300 300 300 299 299 298 299 299 300 301 300 299 299 299 301 302 318 328 325 323 320 322 323 328
325 323 323 321 312 307 303 302 302 303 303 303 302 302 304 301 301 301 301 300 300 300 300 300 299 299 299 299 300 300 299 299 299 300 300 302 320 327 324 321 321 321 323
321 321 318 312 306 303 302 303 303 304 305 303 302 303 304 303 302 301 300 300 300 301 301 300 300 300 299 300 298 299 299 299 299 299 300 301 304 315 321 325 320 320 322
318 311 308 309 304 302 302 302 303 304 303 302 301 302 303 304 303 302 301 300 301 302 301 300 299 299 298 298 296 297 296 298 298 299 300 300 301 303 310 318 322 317 320
307 305 304 303 303 303 302 302 302 302 302 301 302 302 302 303 304 302 301 301 301 301 301 300 299 298 297 297 299 298 297 297 297 301 297 299 300 302 304 313 324 325 320
305 304 304 303 301 301 300 299 300 300 300 301 302 302 303 303 303 302 301 301 301 300 299 298 297 298 297 297 300 299 296 298 297 296 296 299 300 300 301 305 307 312 324
304 303 303 301 299 300 299 299 299 299 300 300 302 302 302 302 302 300 301 300 300 299 298 298 297 296 296 296 294 294 294 296 294 293 295 295 297 297 297 299 300 306 309
301 302 302 301 300 300 301 300 300 299 301 301 302 302 303 302 302 301 299 299 298 298 297 296 296 295 295 295 292 290 289 291 293 297 298 295 297 296 297 298 297 297 298
300 300 301 301 300 302 302 302 302 302 302 301 301 301 302 302 302 300 299 298 297 296 296 295 295 294 292 293 293 291 287 286 291 292 293 294 293 294 295 295 296 297 297
301 301 301 301 301 303 302 302 301 300 299 300 301 302 302 303 301 300 299 298 297 296 295 295 298 293 292 290 291 295 291 290 287 287 290 291 293 294 293 294 295 296 297
302 301 302 301 301 301 301 302 301 300 301 302 301 301 300 300 301 300 298 297 296 295 295 294 293 293 292 291 290 290 289 290 289 288 288 290 291 292 293 294 294 294 296
301 302 301 301 301 301 300 301 301 300 300 300 300 298 298 298 298 298 299 296 296 295 294 294 293 292 292 291 291 290 290 288 289 287 287 288 289 291 292 293 293 294 295
Wind_Speed
3 6 13 13 13 13 12 11 12 12 13 13 14 15 15 15 15 16 17 17 16 16 16 16 16 16 16 15 13 12 12 12 15 17 18 19 18 19 19 19 17 11 15
11 8 14 13 13 13 12 13 13 11 12 13 13 14 14 14 14 14 15 15 17 16 15 15 15 15 15 14 13 12 11 10 9 17 14 15 15 16 18 18 15 14 17
13 12 11 13 13 13 13 13 13 12 12 12 13 13 14 14 14 15 14 14 14 14 16 15 14 15 13 13 12 13 14 14 13 15 12 7 8 16 16 16 16 17 17
15 12 10 14 13 12 13 12 13 12 12 12 12 12 13 14 14 14 14 14 14 14 13 14 14 14 14 12 12 12 12 11 13 8 5 8 10 15 15 14 15 15 15
14 12 12 15 13 12 12 12 12 12 12 12 12 12 13 13 14 14 14 14 14 14 14 13 12 12 12 12 12 13 15 15 15 7 7 6 6 12 13 13 12 13 14
13 12 14 16 14 12 12 11 11 11 11 11 11 12 13 13 12 13 13 13 14 14 13 13 12 11 10 10 10 12 13 16 12 6 5 9 6 13 12 11 11 11 12
12 11 11 15 14 13 12 11 11 11 11 10 10 11 11 11 11 11 12 12 14 14 14 13 12 11 10 9 9 10 12 14 9 6 5 5 6 12 10 10 9 10 10
15 12 11 14 13 12 13 12 11 10 10 11 10 10 11 12 14 14 14 14 13 13 12 12 11 11 9 9 9 9 10 11 6 6 4 3 10 11 10 7 7 7 7
16 14 12 10 11 12 13 12 11 12 12 12 12 13 14 13 14 13 14 13 12 12 12 12 12 12 10 8 9 11 11 10 5 2 5 4 9 10 9 8 4 5 5
14 13 9 9 9 8 6 11 9 10 10 10 13 14 14 14 13 12 11 12 10 11 12 13 13 14 16 11 10 12 12 9 6 2 4 3 9 10 10 9 8 2 3
11 13 11 11 9 10 7 6 8 10 9 8 9 12 9 5 6 7 7 10 15 12 15 15 15 16 15 14 14 14 11 4 5 3 2 6 9 10 10 9 9 8 1
14 14 12 12 10 9 8 6 4 2 2 1 5 5 3 5 4 4 8 13 14 15 15 15 16 16 12 5 5 10 4 6 5 2 2 8 9 10 9 9 8 8 7
14 9 12 11 9 9 7 4 2 1 3 4 7 6 6 5 5 3 4 4 5 10 5 7 7 5 8 6 6 5 6 6 4 3 1 4 4 6 7 7 7 8 7
11 14 11 10 10 7 4 4 4 4 4 4 4 6 5 4 5 4 4 4 5 4 6 6 4 6 7 7 7 7 7 6 4 3 3 6 2 3 5 7 6 7 8
8 8 9 9 8 7 7 5 4 5 5 4 5 5 5 5 5 4 4 4 4 4 4 5 5 5 6 7 7 7 7 7 7 4 3 11 8 6 6 5 7 7 7
11 12 10 10 8 8 6 7 5 5 5 5 4 4 6 4 5 5 4 4 4 4 4 4 4 5 5 5 6 7 7 6 6 6 4 5 11 9 7 7 7 6 9
8 9 9 10 8 9 8 7 5 4 5 4 4 6 6 6 6 5 4 4 3 3 5 5 5 5 5 5 6 6 6 7 6 7 6 5 6 9 8 7 5 7 10
10 10 8 10 11 9 8 5 4 4 4 4 4 4 5 6 5 5 4 3 2 3 3 3 3 4 4 5 4 5 5 6 7 7 6 5 5 4 7 9 6 5 9
12 10 10 9 9 9 7 5 5 6 4 4 4 5 5 5 5 4 3 1 3 3 3 3 3 2 3 5 6 5 5 6 6 6 7 8 7 6 4 6 5 3 4
10 9 9 7 8 8 5 4 3 3 3 4 4 4 6 4 5 4 2 2 3 3 2 2 2 2 1 3 5 7 6 7 5 4 5 5 6 6 5 5 4 4 7
11 10 8 9 6 6 3 3 2 3 2 2 4 7 7 5 4 4 2 1 1 1 1 1 1 2 3 2 3 4 5 6 5 3 4 4 6 6 6 5 4 3 4
10 10 9 9 8 5 4 3 3 3 2 2 2 4 6 6 5 5 4 3 1 0 2 2 1 2 2 1 1 1 5 6 3 8 10 5 9 5 6 6 6 5 3
9 9 10 9 9 7 7 3 2 3 3 2 1 2 4 6 6 6 5 4 3 3 2 2 2 2 2 2 1 2 3 4 7 3 4 5 6 6 6 6 6 6 5
8 8 8 8 9 8 8 5 5 4 4 4 4 4 5 6 6 6 6 6 4 3 3 3 2 2 3 3 2 2 3 3 3 7 1 3 5 6 6 5 6 6 7
8 8 8 8 7 7 7 7 6 3 3 1 2 2 2 3 6 5 4 3 3 2 2 3 3 3 2 3 4 3 2 3 5 5 11 9 3 4 5 5 5 5 5
5 6 5 7 4 1 4 6 7 7 5 2 0 0 2 1 2 4 3 2 1 1 2 3 4 4 5 4 3 4 4 4 5 4 6 7 11 7 4 4 5 5 5
Wind_Direction
151 146 124 113 103 99 94 91 84 78 72 70 65 65 65 61 57 61 63 61 61 64 63 66 65 64 61 58 52 56 55 63 79 70 65 64 54 48 53 46 44 54 66
136 131 122 118 108 102 94 91 88 82 78 76 73 70 69 65 65 62 61 58 54 59 60 61 60 57 56 54 41 39 38 38 87 84 75 62 52 53 50 47 47 51 57
132 131 127 117 112 104 96 94 91 88 84 81 77 75 73 70 68 68 64 63 61 56 53 58 57 60 54 48 36 24 25 21 18 123 101 87 64 50 54 50 48 46 51
135 129 130 122 119 112 101 99 97 93 90 85 82 79 78 77 75 73 70 67 65 64 58 52 53 57 55 45 29 16 12 12 356 37 111 83 74 61 53 52 53 54 49
125 131 128 122 116 109 106 103 101 96 91 89 84 82 81 80 76 74 72 69 66 64 59 55 52 44 49 40 27 12 2 359 16 86 96 96 91 71 62 60 54 54 53
125 126 123 123 120 115 112 108 101 97 93 90 86 83 82 80 77 74 73 74 71 68 63 60 55 49 44 34 21 6 3 1 22 48 83 94 89 79 71 65 62 59 57
129 127 122 126 123 120 112 108 106 103 99 96 93 90 88 85 77 76 70 77 73 62 57 52 48 47 42 32 19 4 354 7 10 42 79 84 88 82 76 72 65 63 62
135 134 128 128 128 127 113 113 111 111 100 90 94 98 82 80 77 70 65 59 59 58 53 47 41 38 30 19 4 4 358 1 5 47 65 66 89 78 65 78 76 70 65
140 140 139 135 128 116 114 108 101 105 108 103 99 93 86 78 74 67 66 63 59 53 50 44 40 31 15 360 350 1 354 340 345 48 94 60 69 74 60 39 80 93 83
143 135 138 129 119 103 111 113 113 106 107 111 108 104 100 91 82 77 66 61 53 48 42 31 26 34 29 25 353 345 344 341 341 108 101 84 74 65 52 33 13 77 121
139 143 149 140 130 125 111 120 123 129 127 128 122 132 112 112 92 82 71 43 50 51 43 40 34 27 21 16 11 6 14 1 24 85 60 74 61 58 48 32 12 359 261
146 153 148 135 142 133 129 142 159 154 122 93 103 118 90 91 121 86 46 53 43 41 38 32 30 27 20 9 6 15 12 6 35 67 81 65 54 48 40 26 12 358 347
153 146 146 144 146 134 135 144 138 158 94 58 70 86 79 79 78 70 57 35 32 36 27 30 23 20 18 16 7 3 5 4 10 26 65 105 68 37 27 10 357 353 344
157 145 151 141 139 132 119 136 139 117 88 79 74 82 81 73 68 69 63 47 45 28 33 32 24 15 15 9 13 3 360 356 352 0 321 308 1 23 2 351 341 332 334
116 134 139 131 126 118 112 119 103 100 97 96 71 72 89 85 79 75 62 54 44 39 39 29 25 17 11 1 358 2 350 346 345 342 335 332 307 297 319 325 330 332 324
120 115 121 125 118 112 104 100 104 104 111 91 85 87 83 93 92 84 68 55 44 42 29 36 25 19 2 1 350 343 332 333 334 336 327 327 325 318 298 303 323 326 325
124 125 121 122 113 103 110 114 118 128 112 113 109 90 88 87 88 99 85 62 44 36 32 29 16 16 6 353 344 331 330 331 325 322 314 312 316 322 315 286 276 300 315
124 120 118 111 114 118 122 127 125 139 136 134 120 103 92 85 95 92 88 70 54 45 49 32 21 358 358 351 330 316 323 318 315 317 321 316 300 296 303 301 275 310 320
124 119 106 119 129 133 136 140 147 146 139 151 131 127 125 105 100 106 103 110 74 54 41 18 357 23 347 337 322 320 313 305 300 319 312 309 307 311 300 288 220 243 264
124 120 121 119 138 137 126 120 101 121 148 143 157 160 154 154 139 121 100 75 67 55 11 2 351 329 291 308 321 316 304 293 293 319 324 350 352 360 356 338 324 306 253
132 130 138 125 158 130 110 123 114 177 182 169 170 162 159 173 165 142 146 114 96 82 261 308 310 325 314 315 347 316 295 298 316 318 324 326 331 346 346 354 358 338 309
148 146 142 150 162 159 137 179 164 170 216 191 183 180 169 170 165 172 160 188 160 113 339 326 310 304 280 325 290 296 335 321 336 338 322 322 337 337 344 338 336 332 333
142 156 158 168 169 171 169 122 75 62 41 61 218 214 211 188 187 184 187 187 198 171 227 248 260 224 253 300 210 186 329 265 317 312 326 300 322 332 309 307 305 307 301
153 152 166 168 166 181 173 149 167 170 182 219 206 217 218 207 204 207 200 194 199 196 222 240 219 218 162 273 326 228 224 202 268 312 280 311 291 292 309 313 318 321 325
146 164 155 172 184 179 174 171 162 165 197 264 323 291 225 215 216 222 214 202 215 204 228 236 278 275 211 198 205 258 253 257 232 239 288 299 276 266 274 282 296 301 305
139 144 134 124 114 175 165 179 176 188 211 225 311 92 270 298 6 31 58 89 129 266 269 268 269 255 257 243 233 233 222 238 263 238 272 282 290 290 247 270 282 293 301